[[{"header":{"parameterUnit":"m.s-1","parameterCategory":1,"la1":30.2991,"la2":30.254,"lo1":-89.0895,"lo2":-89.0444,"dy":0.0017,"dx":0.0017,"nx":28,"ny":28,"refTime":"2025-06-07T09:00:00:Z","depth":0,"parameterNumber":2,"parameterNumberName":"U-component_of_WINDS"},"data":[0,0,0,0,0,0,0,0,0,0,0,0,0,0,0,0,0,0,0,0,0,0,0,0,0,0,0,0,0,0,0,0,0,0,0,0,0,0,0,0,0,0,0,0,0,0,0,0,0,0,0,0,0,0,0,0,0,0,3.4436,3.4437,0,3.4487,3.4488,3.4488,3.4377,3.4374,3.437,3.4367,3.442,3.4424,3.4429,0,0,0,0,0,0,0,0,0,0,0,0,0,3.4242,3.4246,3.4436,3.4437,3.4438,3.4487,3.4488,3.4488,3.4378,3.4374,3.4369,3.4365,3.4418,3.4424,3.443,0,0,0,0,0,0,0,0,0,0,0,0,0,3.4313,3.4248,3.4436,3.4388,3.4385,3.4487,3.4488,3.4489,3.4379,3.4374,3.4368,3.4363,3.4416,3.4423,3.443,3.4582,0,0,3.4452,3.4455,0,0,0,0,0,0,0,0,3.4309,3.432,3.4395,3.4392,3.4388,3.442,3.4438,3.452,3.438,3.4381,3.4367,3.4361,3.4424,3.4431,3.4452,3.4584,3.4586,3.4453,3.4457,3.446,3.4462,0,0,0,0,0,0,0,3.4304,3.4318,3.4456,3.4396,3.4392,3.4364,3.4368,3.4453,3.4432,3.4381,3.4373,3.438,3.4421,3.4445,3.4452,3.4587,3.4453,3.4459,3.4463,3.4466,3.4841,3.4846,0,0,0,0,0,0,3.4306,3.4314,3.4455,3.4458,3.4335,3.4372,3.4376,3.4415,3.4431,3.4428,3.4385,3.4375,3.4436,3.4444,3.4454,3.4628,3.446,3.4467,3.4471,3.4835,3.4842,3.4848,0,0,0,0,0,0,3.4302,3.4319,3.4453,3.4384,3.4399,3.4381,3.4426,3.4419,3.4443,3.4434,3.443,3.4413,3.4432,3.4444,3.4549,3.4628,3.447,3.4476,3.4829,3.4838,3.4845,3.498,0,0,0,0,0,0,3.4297,3.4319,3.4376,3.4386,3.4403,3.4549,3.443,3.4424,3.4455,3.4443,3.4459,3.4457,3.4429,3.4539,3.4557,3.4635,3.4482,3.4821,3.4833,3.4843,3.4969,3.4992,3.5013,0,0,0,0,0,3.429,3.4414,3.438,3.4398,3.4475,3.4553,3.4563,3.4527,3.4462,3.4519,3.4513,3.4456,3.4618,3.4551,3.457,3.4652,3.4816,3.4829,3.4842,3.4959,3.4988,3.5012,0,0,0,0,0,0,3.4415,3.4414,3.4377,3.4507,3.4531,3.4534,3.4606,3.456,3.4603,3.459,3.4544,3.4549,3.4662,3.4668,3.4594,3.4797,3.4706,3.4723,3.4788,3.4816,3.4837,3.4832,3.4488,0,0,0,0,0,3.4457,3.4521,3.4517,3.4632,3.4646,3.4624,3.4657,3.4627,3.4651,3.466,3.4662,3.4687,3.4742,3.478,3.4831,3.497,3.497,3.5035,3.5057,3.5075,3.509,3.5159,3.5187,3.4891,3.489,3.489,0,0,3.4546,3.4553,3.4597,3.4658,3.4672,3.4738,3.4634,3.4709,3.4757,3.4672,3.477,3.4773,3.4797,3.4919,3.4973,3.4927,3.5172,3.5092,3.5106,3.5111,3.5175,3.5203,3.5228,3.4899,3.4898,3.4896,0,0,3.474,3.4754,3.4849,3.4866,3.4889,3.4873,3.4896,3.4907,3.4904,3.5003,3.4939,3.4996,3.5094,3.5112,3.5134,3.5333,3.5281,3.5351,3.5465,3.5534,3.5557,3.5577,3.5645,3.567,3.5366,3.5367,3.5367,0,3.4847,3.4944,3.4904,3.4982,3.5009,3.4935,3.503,3.5048,3.5088,3.5108,3.5056,3.5175,3.5186,3.5309,3.5357,3.5379,3.5402,3.5348,3.5557,3.5577,3.5595,3.5659,3.5685,3.5375,3.5374,3.5373,3.5372,0,3.5072,3.514,3.5215,3.5252,3.5288,3.5375,3.5347,3.5388,3.5355,3.5345,3.5444,3.5455,3.5505,3.5533,3.5502,3.5651,3.5621,3.5565,3.5472,3.5632,3.5691,3.5715,3.5386,3.5383,3.5381,3.5379,0,0,3.5346,3.5359,3.5386,3.5401,3.5421,3.5472,3.5555,3.5602,3.5637,3.5667,3.5733,3.5816,3.5763,3.5788,3.5759,3.582,3.5971,3.5755,3.5754,3.5791,3.6131,3.6171,3.62,3.5938,3.5943,3.5946,3.6128,0,3.5534,3.5675,3.564,3.5779,3.5839,3.5768,3.584,3.5859,3.5851,3.59,3.5892,3.595,3.5877,3.5891,3.5948,3.5941,3.6038,3.5928,3.5997,3.6,3.5989,3.6231,3.6275,3.6445,3.6151,3.6155,3.6158,0,3.5773,3.581,3.5954,3.596,3.5984,3.6049,3.6088,3.6138,3.6157,3.6147,3.6174,3.6132,3.6212,3.6121,3.6228,3.6153,3.618,3.618,3.6186,3.6188,3.6086,3.6237,3.6499,3.6523,3.6194,3.6191,3.6189,0,3.5953,3.6039,3.6135,3.615,3.6162,3.6208,3.6215,3.6229,3.6259,3.6294,3.6312,3.6357,3.638,3.6415,3.6385,3.6322,3.6496,3.6403,3.6487,3.6488,3.6525,3.6522,3.6792,3.6549,3.6548,3.6548,3.6547,0,3.6165,3.6255,3.6215,3.6274,3.6372,3.6331,3.643,3.6428,3.6441,3.6497,3.6441,3.6495,3.6454,3.6504,3.6482,3.6572,3.6585,3.6577,3.6569,3.658,3.658,3.6594,3.658,3.6554,3.6553,3.6552,3.655,0,3.6381,3.6359,3.6458,3.646,3.6462,3.6534,3.6535,3.6588,3.6576,3.6648,3.6662,3.6643,3.6699,3.6673,3.6733,3.6718,3.6832,3.6811,3.6825,3.6818,3.6902,3.6893,3.7187,3.7222,3.696,3.6963,3.6965,0,3.6516,3.6583,3.6592,3.6625,3.6635,3.669,3.6719,3.6682,3.6715,3.674,3.6791,3.6842,3.688,3.6972,3.6963,3.7007,3.6984,3.7084,3.699,3.6998,3.6981,3.6975,3.698,3.7102,3.7105,3.7107,3.7109,0,3.6757,3.6742,3.6786,3.6827,3.6863,3.6893,3.6919,3.6949,3.6912,3.6952,3.7008,3.7038,3.7097,3.7147,3.7185,3.7191,3.7144,3.7139,3.716,3.717,3.7174,3.7169,3.6872,3.7132,3.713,3.7128,3.7127,3.7126,3.6934,3.6988,3.7002,3.7052,3.7067,3.7092,3.7141,3.7134,3.718,3.7224,3.7199,3.7264,3.7279,3.7325,3.7338,3.7387,3.7347,3.7379,3.7386,3.7393,3.7402,3.7169,3.7394,3.7393,3.7393,3.7392,3.7392,0,3.7167,3.7172,3.7219,3.7255,3.7295,3.7247,3.7272,3.7307,3.7364,3.7383,3.7421,3.7484,3.7531,3.7526,3.7569,3.7609,3.7588,3.7621,3.7616,3.7617,3.7438,3.7413,3.7637,3.7637,3.7637,3.7637,3.7637,3.7637,3.7294,3.7382,3.7369,3.7463,3.7467,3.7529,3.7547,3.7568,3.7582,3.7654,3.7693,3.7689,3.7696,3.7739,3.7781,3.7777,3.7794,3.7835,3.7824,3.7655,3.7631,3.7607,3.7584,3.784,3.784,3.7999,3.8,3.8001]},{"header":{"parameterUnit":"m.s-1","parameterCategory":1,"la1":30.2991,"la2":30.254,"lo1":-89.0895,"lo2":-89.0444,"dy":0.0017,"dx":0.0017,"nx":28,"ny":28,"refTime":"2025-06-07T09:00:00:Z","depth":0,"parameterNumber":3,"parameterNumberName":"V-component_of_WINDS"},"data":[0,0,0,0,0,0,0,0,0,0,0,0,0,0,0,0,0,0,0,0,0,0,0,0,0,0,0,0,0,0,0,0,0,0,0,0,0,0,0,0,0,0,0,0,0,0,0,0,0,0,0,0,0,0,0,0,0,0,2.6838,2.684,0,2.6977,2.6979,2.6981,2.6952,2.695,2.6947,2.6945,2.7088,2.7094,2.71,0,0,0,0,0,0,0,0,0,0,0,0,0,2.6546,2.6552,2.6838,2.684,2.6842,2.6977,2.6979,2.6981,2.6953,2.695,2.6947,2.6944,2.7086,2.7093,2.7101,0,0,0,0,0,0,0,0,0,0,0,0,0,2.6678,2.6554,2.6838,2.6844,2.6846,2.6977,2.6979,2.6982,2.6953,2.695,2.6946,2.6942,2.7083,2.7092,2.7102,2.7235,0,0,2.713,2.7134,0,0,0,0,0,0,0,0,2.6671,2.6689,2.6841,2.6844,2.6846,2.6944,2.6929,2.7067,2.6954,2.6913,2.6945,2.694,2.7043,2.7055,2.709,2.7242,2.7248,2.7131,2.7136,2.714,2.7143,0,0,0,0,0,0,0,2.6662,2.6683,2.6893,2.6843,2.6846,2.6839,2.6854,2.6955,2.6998,2.6916,2.6914,2.6931,2.7044,2.7081,2.7093,2.725,2.713,2.7139,2.7144,2.7148,2.7517,2.7521,0,0,0,0,0,0,2.665,2.6675,2.6889,2.6897,2.6747,2.6847,2.6864,2.6916,2.6996,2.7005,2.6934,2.6929,2.7067,2.7082,2.7098,2.7259,2.714,2.7149,2.7154,2.7513,2.7518,2.7523,0,0,0,0,0,0,2.6644,2.667,2.6883,2.6786,2.6813,2.6857,2.6916,2.6921,2.6958,2.701,2.7018,2.6965,2.7065,2.7085,2.7201,2.7264,2.7153,2.7162,2.7508,2.7515,2.752,2.7583,0,0,0,0,0,0,2.6636,2.6668,2.672,2.6787,2.6818,2.6985,2.692,2.6926,2.6974,2.6969,2.7041,2.7049,2.7063,2.7187,2.721,2.7275,2.7169,2.7503,2.7511,2.7518,2.7576,2.7591,2.7604,0,0,0,0,0,2.6626,2.6732,2.6722,2.6748,2.6884,2.6988,2.7006,2.702,2.698,2.7032,2.7065,2.7047,2.7253,2.7199,2.7225,2.7293,2.7499,2.7509,2.7518,2.7569,2.7588,2.7603,0,0,0,0,0,0,2.6671,2.6741,2.6731,2.6863,2.692,2.6983,2.705,2.7039,2.7109,2.7102,2.7116,2.7132,2.725,2.7283,2.7222,2.7426,2.737,2.7385,2.74,2.7418,2.7432,2.7422,2.7177,0,0,0,0,0,2.6697,2.6776,2.6833,2.6943,2.6972,2.7006,2.7052,2.7058,2.7118,2.7142,2.7183,2.7242,2.7319,2.737,2.7445,2.7579,2.7594,2.7639,2.7653,2.7664,2.7677,2.775,2.777,2.7554,2.7554,2.7554,0,0,2.675,2.6798,2.6847,2.6954,2.6998,2.708,2.7027,2.7116,2.7176,2.7155,2.7267,2.7299,2.7365,2.7491,2.7548,2.7522,2.774,2.7676,2.7685,2.7692,2.7762,2.7782,2.78,2.7561,2.7559,2.7558,0,0,2.6889,2.6933,2.703,2.7075,2.7143,2.7165,2.7188,2.7253,2.7273,2.7386,2.7371,2.7443,2.7577,2.7624,2.7666,2.7819,2.7805,2.7843,2.7917,2.7987,2.8004,2.802,2.8074,2.8094,2.7856,2.7856,2.7856,0,2.6947,2.707,2.7081,2.7171,2.7217,2.7201,2.7298,2.7342,2.7431,2.7463,2.7432,2.7599,2.7642,2.7778,2.7815,2.7849,2.7876,2.7836,2.8001,2.8016,2.8031,2.8083,2.8103,2.786,2.786,2.7859,2.7859,0,2.7137,2.7222,2.7291,2.7377,2.7431,2.7525,2.7549,2.7603,2.7603,2.7627,2.7741,2.7792,2.7876,2.7908,2.791,2.8044,2.8025,2.7997,2.7942,2.8055,2.8105,2.8125,2.7866,2.7865,2.7863,2.7862,0,0,2.7311,2.74,2.7426,2.7464,2.7536,2.7602,2.7693,2.7775,2.782,2.7881,2.7958,2.807,2.8044,2.8091,2.8097,2.8159,2.8277,2.8124,2.8125,2.8151,2.8427,2.8448,2.8471,2.8267,2.8271,2.8274,2.8422,0,2.7457,2.7619,2.7631,2.7776,2.7854,2.7838,2.7918,2.7971,2.7995,2.8064,2.8091,2.817,2.813,2.8158,2.8219,2.825,2.8333,2.8239,2.8339,2.8342,2.8324,2.8497,2.852,2.8657,2.8441,2.8444,2.8447,0,2.765,2.7715,2.7869,2.7929,2.7962,2.8033,2.8108,2.8174,2.8233,2.8246,2.8298,2.8295,2.8387,2.8327,2.8455,2.8391,2.8432,2.8453,2.8459,2.847,2.8402,2.8513,2.8701,2.8722,2.8477,2.8475,2.8472,0,2.7761,2.7888,2.7996,2.8029,2.8102,2.8152,2.8184,2.8239,2.8287,2.8352,2.8382,2.8457,2.8499,2.8556,2.8573,2.8528,2.87,2.8642,2.8714,2.8714,2.8752,2.875,2.8951,2.8777,2.8777,2.8777,2.8776,0,2.7923,2.8018,2.8047,2.8114,2.8218,2.823,2.8333,2.8362,2.8411,2.8482,2.8473,2.854,2.8558,2.8628,2.8641,2.8745,2.8763,2.8776,2.8779,2.8778,2.8776,2.8806,2.8797,2.8782,2.8781,2.878,2.8779,0,2.8066,2.809,2.8206,2.8265,2.8281,2.8356,2.8406,2.8469,2.8491,2.8581,2.8603,2.8638,2.872,2.8742,2.884,2.8849,2.8971,2.8964,2.8951,2.8951,2.9022,2.9015,2.925,2.9281,2.9087,2.9088,2.909,0,2.8169,2.8241,2.8306,2.8353,2.8388,2.8464,2.8512,2.8525,2.8575,2.8646,2.8701,2.8781,2.8847,2.8978,2.9012,2.9086,2.9082,2.9158,2.9093,2.9089,2.9083,2.9079,2.9086,2.9171,2.9173,2.9175,2.9176,0,2.8348,2.8355,2.8425,2.8499,2.8556,2.8614,2.8671,2.8709,2.873,2.8787,2.887,2.8921,2.902,2.91,2.9175,2.9207,2.9196,2.9196,2.9217,2.9217,2.9207,2.9214,2.8986,2.9191,2.919,2.9189,2.9188,2.9187,2.8474,2.8537,2.8592,2.867,2.8713,2.8765,2.8827,2.8856,2.8926,2.9008,2.9011,2.9101,2.9156,2.9255,2.9292,2.9362,2.9339,2.9369,2.9377,2.9385,2.9391,2.9195,2.9376,2.9375,2.9375,2.9375,2.9374,0,2.8653,2.8687,2.8758,2.8836,2.8897,2.8879,2.894,2.8992,2.9071,2.9123,2.9187,2.9282,2.9358,2.9397,2.9473,2.9522,2.9518,2.9542,2.9539,2.9546,2.9407,2.9382,2.9543,2.9543,2.9543,2.9543,2.9543,2.9543,2.8753,2.8858,2.8872,2.8998,2.9031,2.912,2.9155,2.9203,2.9245,2.9351,2.9414,2.9439,2.9485,2.9564,2.9633,2.9643,2.9671,2.9697,2.9704,2.9573,2.9556,2.954,2.9516,2.9703,2.9704,2.9838,2.9839,2.984]}]]